TimeCAT,TemperatureF,Dew PointF,Humidity,Sea Level PressureIn,VisibilityMPH,Wind Direction,Wind SpeedMPH,Gust SpeedMPH,PrecipitationIn,Events,Conditions,WindDirDegrees,DateUTC
12:00 AM,86.0,51.8,31,29.98,-9999.0,ESE,19.6,-,N/A,,Clear,110,2012-11-07 22:00:00
1:00 AM,84.2,51.8,33,29.95,-9999.0,ENE,13.8,-,N/A,,Clear,70,2012-11-07 23:00:00
2:00 AM,82,52,25,,6,East,18.4,,,,Partly Cloudy,90,2012-11-08 00:00:00
2:00 AM,82.4,51.8,35,29.95,-9999.0,East,18.4,-,N/A,,Clear,90,2012-11-08 00:00:00
3:00 AM,78.8,55.4,44,29.95,-9999.0,East,18.4,-,N/A,,Clear,90,2012-11-08 01:00:00
4:00 AM,75.2,59.0,57,29.95,-9999.0,East,17.3,-,N/A,,Clear,90,2012-11-08 02:00:00
5:00 AM,75.2,59.0,57,29.98,-9999.0,ENE,12.7,-,N/A,,Clear,70,2012-11-08 03:00:00
6:00 AM,71.6,60.8,69,30.01,-9999.0,East,15.0,-,N/A,,Clear,90,2012-11-08 04:00:00
7:00 AM,71.6,60.8,69,30.01,-9999.0,East,17.3,-,N/A,,Clear,80,2012-11-08 05:00:00
8:00 AM,73,62,59,,6,ENE,15.0,,,,Mostly Cloudy,70,2012-11-08 06:00:00
8:00 AM,73.4,60.8,65,30.01,-9999.0,ENE,15.0,-,N/A,,Clear,70,2012-11-08 06:00:00
9:00 AM,75.2,60.8,61,30.01,-9999.0,ENE,15.0,-,N/A,,Clear,70,2012-11-08 07:00:00
10:00 AM,77.0,60.8,57,30.01,-9999.0,East,12.7,-,N/A,,Clear,80,2012-11-08 08:00:00
11:00 AM,78.8,60.8,54,30.01,-9999.0,East,16.1,-,N/A,,Clear,100,2012-11-08 09:00:00
12:00 PM,78.8,60.8,54,30.01,-9999.0,East,11.5,-,N/A,,Clear,90,2012-11-08 10:00:00
1:00 PM,84.2,60.8,45,29.95,6.2,East,16.1,28.8,N/A,,Scattered Clouds,80,2012-11-08 11:00:00
2:00 PM,88,58,26,,6,East,9.2,,,,Scattered Clouds,90,2012-11-08 12:00:00
2:00 PM,87.8,57.2,35,29.95,6.2,East,9.2,-,N/A,,Scattered Clouds,90,2012-11-08 12:00:00
3:00 PM,91.4,57.2,31,29.89,6.2,ENE,8.1,-,N/A,,Scattered Clouds,60,2012-11-08 13:00:00
4:00 PM,93.2,55.4,28,29.83,6.2,East,10.4,-,N/A,,Partly Cloudy,90,2012-11-08 14:00:00
5:00 PM,93.2,50.0,23,29.86,6.2,East,9.2,-,N/A,,Scattered Clouds,90,2012-11-08 15:00:00
6:00 PM,87.8,55.4,33,29.86,6.2,East,21.9,-,N/A,,Scattered Clouds,90,2012-11-08 16:00:00
7:00 PM,80.6,60.8,51,29.86,6.2,East,27.6,-,N/A,Thunderstorm,Thunderstorm,90,2012-11-08 17:00:00
8:00 PM,71,65,76,,6,East,24.2,,,Rain-Thunderstorm,Thunderstorms and Rain,90,2012-11-08 18:00:00
8:00 PM,71.6,64.4,78,29.95,6.2,East,24.2,-,N/A,Rain-Thunderstorm,Thunderstorms and Rain,90,2012-11-08 18:00:00
9:00 PM,69.8,62.6,78,29.95,6.2,SE,18.4,40.3,N/A,Rain-Thunderstorm,Thunderstorms and Rain,140,2012-11-08 19:00:00
10:00 PM,66.2,62.6,88,30.09,6.2,SE,26.5,-,N/A,Rain-Thunderstorm,Thunderstorms and Rain,140,2012-11-08 20:00:00
11:00 PM,62.6,59.0,88,30.06,6.2,ESE,26.5,40.3,N/A,Rain-Thunderstorm,Light Thunderstorms and Rain,110,2012-11-08 21:00:00